Weather in Golubinskaya

Russia / Volgograd Oblast     48°50′51″N   43°33′25″E
temp.,
°C
wind,
m/s
gust,
m/s
humid.,
%
clouds,
%
prec.,
mm/h
press.,
hPa
HPBL,
m
4 march, thu
thu400:00−2wnw49810 0.0 1020400
03:00−3w59820 0.0 1021299
06:00−2wsw612750 0.0 1020388
09:00+1wsw914588 0.0 1019804
12:00+5wsw1014410 0.0 10181286
15:00+6wsw1014470 0.0 10161361
18:00+2sw715620 0.0 1014443
21:00+1sw817680 0.0 1014526
5 march, fri
fri500:00+1sw818750 0.0 1012566
03:00+1sw8178717 0.0 1012644
06:00+2wsw9178583 0.0 1011753
09:00+3wsw9158492 0.0 1012642
12:00+4wsw81385100 0.0 1012740
15:00+5wsw61282100 0.0 1012738
18:00+4wsw51185100 0.1 1013567
21:00+4wsw4994100 0.4 1015385
6 march, sat
sat600:00+3sw2598100 1.1 1014221
03:00+3sw3892100 2.6 1014379
06:00+3sw4989100 0.6 1013440
09:00+3sw51182100 1.2 1011617
12:00+3wsw2897100 3.9 1010483
15:00+1n4594100 4.3 1010235
18:00−1n71088100 0.1 1011600
21:00−2n5884100 0.1 1013569
7 march, sun
sun700:00−3n3485100 0.0 1016473
03:00−3n238185 0.0 1017307
06:00−4nw2391100 0.5 1019270
09:00−3wnw687599 0.9 1021671
12:00−1wnw786399 0.0 10211165
15:000w695187 0.1 10201334
18:00−1sw5115734 0.0 1018508
21:00−2sw8145666 0.0 1018774
8 march, mon
mon800:00−2wsw8156076 0.0 1016783
03:00−2sw8166738 0.0 1015714
06:00−1sw816670 0.0 1013677
09:00+1wsw10145920 0.0 10131008
12:00+4wsw11164874 0.0 10121778
15:00+5w11165387 0.0 10111902
18:00+2w5137283 0.0 1012498
21:00+1sw4107986 0.0 1014282